EUS17UV EKVG-EGPH

Flight info

Callsign EUS17UV
Flight time 1h 15m
Altitude 37000
Route ODEVA DCT NALAN/N0435F370 DCT LAGAV/N0349F240 N560 FOYLE DCT STIRA
Aircraft B738/M-SDE2E3FGHIRWXY/LB1

Departure

Time 2026-04-22 18:33
Airport Vágar Airport (EKVG)

Arrival

Time 2026-04-22 19:48
Airport Edinburgh Airport (EGPH)
Time Latitude Longitude Altitude Speed Heading
2026-04-22 18:12 62.06683 -7.27949 278 ft 0 kts 29°
2026-04-22 18:22 62.06669 -7.27964 278 ft 4 kts 11°
2026-04-22 18:22 62.06648 -7.27956 285 ft 4 kts 308°
2026-04-22 18:23 62.06641 -7.27929 280 ft 0 kts 286°
2026-04-22 18:26 62.06642 -7.27939 278 ft 2 kts 286°
2026-04-22 18:26 62.06652 -7.28017 305 ft 8 kts 281°
2026-04-22 18:26 62.06616 -7.28087 278 ft 8 kts 186°
2026-04-22 18:27 62.06550 -7.28106 277 ft 10 kts 196°
2026-04-22 18:27 62.06482 -7.28146 280 ft 10 kts 169°
2026-04-22 18:27 62.06436 -7.28028 280 ft 11 kts 117°
2026-04-22 18:27 62.06401 -7.27887 283 ft 11 kts 118°
2026-04-22 18:28 62.06395 -7.27863 283 ft 0 kts 118°
2026-04-22 18:29 62.06381 -7.27810 284 ft 7 kts 117°
2026-04-22 18:29 62.06355 -7.27698 291 ft 10 kts 116°
2026-04-22 18:29 62.06316 -7.27543 286 ft 16 kts 118°
2026-04-22 18:30 62.06252 -7.27289 280 ft 23 kts 118°
2026-04-22 18:30 62.06062 -7.26522 255 ft 35 kts 118°
2026-04-22 18:30 62.05976 -7.26181 243 ft 21 kts 115°
2026-04-22 18:31 62.05954 -7.26040 239 ft 10 kts 92°
2026-04-22 18:31 62.05925 -7.25981 237 ft 0 kts 186°
2026-04-22 18:31 62.05924 -7.25985 237 ft 0 kts 211°
2026-04-22 18:31 62.05924 -7.25992 237 ft 0 kts 249°
2026-04-22 18:32 62.05927 -7.25999 238 ft 1 kts 297°
2026-04-22 18:32 62.05943 -7.26052 239 ft 6 kts 297°
2026-04-22 18:32 62.05946 -7.26064 239 ft 5 kts 299°
2026-04-22 18:32 62.06135 -7.26825 266 ft 108 kts 297°
2026-04-22 18:33 62.06618 -7.28807 405 ft 181 kts 296°
2026-04-22 18:33 62.07222 -7.31302 1618 ft 193 kts 295°
2026-04-22 18:33 62.07819 -7.33856 3110 ft 186 kts 294°
2026-04-22 18:33 62.08387 -7.36276 4672 ft 179 kts 295°
2026-04-22 18:34 62.08916 -7.38658 5945 ft 183 kts 288°
2026-04-22 18:34 62.09226 -7.41486 6554 ft 206 kts 279°
2026-04-22 18:34 62.09556 -7.44686 6787 ft 236 kts 281°
2026-04-22 18:34 62.09717 -7.48285 7269 ft 249 kts 265°
2026-04-22 18:35 62.09413 -7.52007 7981 ft 260 kts 253°
2026-04-22 18:35 62.08802 -7.55651 8963 ft 260 kts 243°
2026-04-22 18:35 62.07838 -7.58854 10033 ft 258 kts 226°
2026-04-22 18:35 62.06484 -7.61375 10375 ft 259 kts 212°
2026-04-22 18:36 62.04885 -7.63063 10499 ft 256 kts 197°
2026-04-22 18:36 62.03116 -7.63823 11040 ft 259 kts 185°
2026-04-22 18:36 62.01321 -7.63844 11991 ft 261 kts 171°
2026-04-22 18:36 61.99579 -7.62730 12869 ft 263 kts 155°
2026-04-22 18:37 61.98001 -7.60736 13796 ft 266 kts 141°
2026-04-22 18:37 61.96709 -7.57910 14693 ft 268 kts 129°
2026-04-22 18:37 61.95765 -7.54490 15544 ft 271 kts 112°
2026-04-22 18:37 61.95296 -7.50567 16331 ft 278 kts 102°
2026-04-22 18:38 61.95072 -7.46414 16874 ft 293 kts 99°
2026-04-22 18:38 61.94849 -7.41924 17113 ft 316 kts 99°
2026-04-22 18:38 61.94602 -7.37142 17368 ft 338 kts 99°
2026-04-22 18:39 61.94081 -7.26949 18686 ft 352 kts 99°
2026-04-22 18:39 61.93808 -7.21751 19375 ft 356 kts 99°
2026-04-22 18:39 61.93529 -7.16514 20099 ft 357 kts 99°
2026-04-22 18:39 61.93248 -7.11280 20884 ft 357 kts 100°
2026-04-22 18:40 61.92967 -7.06103 21634 ft 358 kts 100°
2026-04-22 18:40 61.92680 -7.00842 22361 ft 360 kts 100°
2026-04-22 18:40 61.92388 -6.95555 23071 ft 362 kts 100°
2026-04-22 18:40 61.92093 -6.90240 23768 ft 364 kts 100°
2026-04-22 18:41 61.91796 -6.84893 24382 ft 366 kts 100°
2026-04-22 18:41 61.91494 -6.79516 24921 ft 368 kts 101°
2026-04-22 18:41 61.91187 -6.74110 25466 ft 370 kts 101°
2026-04-22 18:41 61.90724 -6.68763 25964 ft 368 kts 112°
2026-04-22 18:42 61.89521 -6.64021 26492 ft 366 kts 128°
2026-04-22 18:42 61.87775 -6.60115 27042 ft 366 kts 139°
2026-04-22 18:42 61.85639 -6.57145 27528 ft 371 kts 153°
2026-04-22 18:42 61.83211 -6.55206 28034 ft 375 kts 158°
2026-04-22 18:43 61.80724 -6.53504 28511 ft 377 kts 159°
2026-04-22 18:43 61.78211 -6.51858 28987 ft 379 kts 159°
2026-04-22 18:43 61.75684 -6.50210 29512 ft 380 kts 159°
2026-04-22 18:43 61.73159 -6.48550 30067 ft 380 kts 159°
2026-04-22 18:44 61.70635 -6.46871 30520 ft 381 kts 159°
2026-04-22 18:44 61.68098 -6.45170 30850 ft 384 kts 159°
2026-04-22 18:44 61.65541 -6.43445 31106 ft 388 kts 159°
2026-04-22 18:44 61.62958 -6.41700 31361 ft 392 kts 159°
2026-04-22 18:45 61.60350 -6.39939 31639 ft 395 kts 159°
2026-04-22 18:45 61.57725 -6.38168 31908 ft 398 kts 159°
2026-04-22 18:45 61.55080 -6.36387 32250 ft 399 kts 159°
2026-04-22 18:45 61.52438 -6.34611 32590 ft 399 kts 159°
2026-04-22 18:46 61.49800 -6.32842 33018 ft 398 kts 159°
2026-04-22 18:46 61.47162 -6.31076 33381 ft 398 kts 159°
2026-04-22 18:46 61.44520 -6.29310 33723 ft 399 kts 159°
2026-04-22 18:46 61.41874 -6.27544 34104 ft 399 kts 159°
2026-04-22 18:47 61.39228 -6.25782 34484 ft 399 kts 159°
2026-04-22 18:47 61.36583 -6.24022 34777 ft 400 kts 159°
2026-04-22 18:47 61.33933 -6.22262 35016 ft 401 kts 159°
2026-04-22 18:47 61.31262 -6.20491 35271 ft 403 kts 159°
2026-04-22 18:48 61.28592 -6.18725 35549 ft 403 kts 160°
2026-04-22 18:48 61.25947 -6.16978 35798 ft 405 kts 160°
2026-04-22 18:48 61.23260 -6.15206 36045 ft 406 kts 160°
2026-04-22 18:48 61.20566 -6.13433 36304 ft 407 kts 160°
2026-04-22 18:49 61.17864 -6.11658 36527 ft 409 kts 160°
2026-04-22 18:49 61.15139 -6.09871 36703 ft 412 kts 160°
2026-04-22 18:49 61.12406 -6.08082 36985 ft 412 kts 160°
2026-04-22 18:49 61.09676 -6.06299 37265 ft 412 kts 160°
2026-04-22 18:50 61.06940 -6.04513 37486 ft 413 kts 160°
2026-04-22 18:50 61.04201 -6.02729 37532 ft 418 kts 160°
2026-04-22 18:50 60.98588 -5.99221 37539 ft 420 kts 163°
2026-04-22 18:51 60.92953 -5.96420 37537 ft 413 kts 164°
2026-04-22 18:51 60.87359 -5.93731 37552 ft 414 kts 165°
2026-04-22 18:52 60.81749 -5.91017 37557 ft 415 kts 165°
2026-04-22 18:52 60.76117 -5.88278 37556 ft 417 kts 165°
2026-04-22 18:53 60.70463 -5.85529 37551 ft 418 kts 165°
2026-04-22 18:53 60.64790 -5.82779 37548 ft 420 kts 165°
2026-04-22 18:54 60.59102 -5.80030 37550 ft 421 kts 165°
2026-04-22 18:54 60.53389 -5.77281 37548 ft 422 kts 165°
2026-04-22 18:55 60.47702 -5.74555 37545 ft 423 kts 165°
2026-04-22 18:55 60.41973 -5.71818 37543 ft 423 kts 165°
2026-04-22 18:56 60.36238 -5.69089 37543 ft 423 kts 165°
2026-04-22 18:56 60.30507 -5.66370 37543 ft 423 kts 165°
2026-04-22 18:57 60.24775 -5.63661 37543 ft 423 kts 165°
2026-04-22 18:57 60.19044 -5.60962 37541 ft 423 kts 165°
2026-04-22 18:58 60.13319 -5.58276 37541 ft 423 kts 165°
2026-04-22 18:58 60.07593 -5.55599 37543 ft 422 kts 165°
2026-04-22 18:59 60.01866 -5.52931 37538 ft 423 kts 166°
2026-04-22 18:59 59.96139 -5.50272 37544 ft 423 kts 166°
2026-04-22 19:00 59.90403 -5.47618 37543 ft 423 kts 166°
2026-04-22 19:00 59.84661 -5.44971 37541 ft 424 kts 166°
2026-04-22 19:01 59.78916 -5.42333 37538 ft 424 kts 166°
2026-04-22 19:01 59.73163 -5.39700 37535 ft 425 kts 166°
2026-04-22 19:02 59.67405 -5.37074 37530 ft 422 kts 166°
2026-04-22 19:02 59.61769 -5.34514 37527 ft 411 kts 166°
2026-04-22 19:03 59.56211 -5.31996 37538 ft 409 kts 166°
2026-04-22 19:03 59.50668 -5.29494 37536 ft 408 kts 166°
2026-04-22 19:04 59.45127 -5.27000 37534 ft 409 kts 166°
2026-04-22 19:04 59.39579 -5.24512 37541 ft 410 kts 166°
2026-04-22 19:05 59.34011 -5.22024 37537 ft 411 kts 166°
2026-04-22 19:05 59.28424 -5.19536 37536 ft 413 kts 166°
2026-04-22 19:06 59.22811 -5.17044 37535 ft 414 kts 166°
2026-04-22 19:07 59.14391 -5.13322 37528 ft 416 kts 167°
2026-04-22 19:07 59.08735 -5.10834 37512 ft 417 kts 167°
2026-04-22 19:08 59.03075 -5.08352 37523 ft 417 kts 167°
2026-04-22 19:08 58.97416 -5.05877 37527 ft 417 kts 167°
2026-04-22 19:09 58.91764 -5.03414 37518 ft 416 kts 167°
2026-04-22 19:09 58.87073 -5.01376 37519 ft 416 kts 167°
2026-04-22 19:10 58.81431 -4.98933 37519 ft 415 kts 167°
2026-04-22 19:10 58.75801 -4.96503 37524 ft 414 kts 167°
2026-04-22 19:11 58.70177 -4.94084 37519 ft 414 kts 167°
2026-04-22 19:11 58.64558 -4.91675 37517 ft 414 kts 167°
2026-04-22 19:12 58.58943 -4.89275 37513 ft 413 kts 167°
2026-04-22 19:12 58.53325 -4.86882 37509 ft 414 kts 167°
2026-04-22 19:13 58.47705 -4.84497 37508 ft 414 kts 167°
2026-04-22 19:13 58.42079 -4.82116 37514 ft 414 kts 167°
2026-04-22 19:14 58.36452 -4.79742 37498 ft 415 kts 167°
2026-04-22 19:14 58.30820 -4.77374 37513 ft 415 kts 167°
2026-04-22 19:15 58.25179 -4.75011 37512 ft 416 kts 168°
2026-04-22 19:15 58.19524 -4.72649 37512 ft 416 kts 168°
2026-04-22 19:16 58.13862 -4.70292 37507 ft 417 kts 168°
2026-04-22 19:16 58.08193 -4.67940 37506 ft 417 kts 168°
2026-04-22 19:17 58.02553 -4.65607 37511 ft 418 kts 168°
2026-04-22 19:17 57.96865 -4.63262 37529 ft 419 kts 168°
2026-04-22 19:18 57.91168 -4.60921 37523 ft 419 kts 168°
2026-04-22 19:18 57.85463 -4.58584 37525 ft 420 kts 168°
2026-04-22 19:19 57.79753 -4.56253 37522 ft 420 kts 169°
2026-04-22 19:19 57.74033 -4.53925 37329 ft 423 kts 169°
2026-04-22 19:19 57.71152 -4.52756 36950 ft 421 kts 169°
2026-04-22 19:20 57.68305 -4.51600 36546 ft 417 kts 169°
2026-04-22 19:20 57.65481 -4.50457 36148 ft 414 kts 170°
2026-04-22 19:20 57.62674 -4.49322 35746 ft 411 kts 170°
2026-04-22 19:20 57.59889 -4.48198 35355 ft 408 kts 171°
2026-04-22 19:21 57.57116 -4.47081 34940 ft 406 kts 171°
2026-04-22 19:21 57.54353 -4.45969 34474 ft 406 kts 172°
2026-04-22 19:21 57.51590 -4.44861 33974 ft 405 kts 172°
2026-04-22 19:21 57.48846 -4.43760 33608 ft 401 kts 173°
2026-04-22 19:22 57.46132 -4.42672 33257 ft 397 kts 173°
2026-04-22 19:22 57.43441 -4.41595 32881 ft 394 kts 173°
2026-04-22 19:22 57.40769 -4.40529 32489 ft 391 kts 173°
2026-04-22 19:22 57.38114 -4.39471 32117 ft 389 kts 174°
2026-04-22 19:23 57.35469 -4.38419 31638 ft 389 kts 174°
2026-04-22 19:23 57.32821 -4.37370 31151 ft 390 kts 174°
2026-04-22 19:23 57.30165 -4.36319 30634 ft 390 kts 174°
2026-04-22 19:23 57.27509 -4.35268 30075 ft 390 kts 174°
2026-04-22 19:24 57.24858 -4.34220 29515 ft 390 kts 174°
2026-04-22 19:24 57.22204 -4.33173 28967 ft 390 kts 174°
2026-04-22 19:24 57.19555 -4.32128 28418 ft 389 kts 174°
2026-04-22 19:24 57.16911 -4.31086 27889 ft 388 kts 173°
2026-04-22 19:25 57.14276 -4.30050 27367 ft 387 kts 173°
2026-04-22 19:25 57.11640 -4.29015 26776 ft 388 kts 173°
2026-04-22 19:25 57.08999 -4.27980 26179 ft 389 kts 173°
2026-04-22 19:25 57.06345 -4.26942 25576 ft 390 kts 173°
2026-04-22 19:26 57.03688 -4.25903 25007 ft 391 kts 172°
2026-04-22 19:26 57.01033 -4.24867 24500 ft 389 kts 172°
2026-04-22 19:26 56.98385 -4.23832 24002 ft 388 kts 172°
2026-04-22 19:26 56.95756 -4.22807 23426 ft 386 kts 171°
2026-04-22 19:27 56.93139 -4.21789 22965 ft 381 kts 171°
2026-04-22 19:27 56.90571 -4.20853 22697 ft 371 kts 175°
2026-04-22 19:27 56.88039 -4.20597 22417 ft 359 kts 185°
2026-04-22 19:27 56.85591 -4.21087 22155 ft 350 kts 191°
2026-04-22 19:28 56.83201 -4.21709 21854 ft 344 kts 191°
2026-04-22 19:28 56.80848 -4.22322 21491 ft 340 kts 190°
2026-04-22 19:28 56.78517 -4.22916 21147 ft 336 kts 190°
2026-04-22 19:28 56.76212 -4.23489 20794 ft 333 kts 189°
2026-04-22 19:29 56.73927 -4.24047 20462 ft 330 kts 189°
2026-04-22 19:29 56.71666 -4.24596 20126 ft 327 kts 189°
2026-04-22 19:29 56.69423 -4.25139 19807 ft 323 kts 189°
2026-04-22 19:29 56.67208 -4.25570 19627 ft 316 kts 181°
2026-04-22 19:30 56.65767 -4.25367 19532 ft 312 kts 171°
2026-04-22 19:30 56.63023 -4.23755 19170 ft 310 kts 158°
2026-04-22 19:30 56.61051 -4.22140 18669 ft 315 kts 157°
2026-04-22 19:30 56.59046 -4.20467 18110 ft 319 kts 157°
2026-04-22 19:31 56.57024 -4.18780 17583 ft 321 kts 157°
2026-04-22 19:31 56.54989 -4.17090 17065 ft 323 kts 156°
2026-04-22 19:31 56.52938 -4.15396 16562 ft 324 kts 156°
2026-04-22 19:31 56.50881 -4.13705 16094 ft 324 kts 156°
2026-04-22 19:32 56.48829 -4.12024 15663 ft 323 kts 156°
2026-04-22 19:32 56.46789 -4.10356 15242 ft 321 kts 156°
2026-04-22 19:32 56.44757 -4.08700 14841 ft 320 kts 156°
2026-04-22 19:32 56.42733 -4.07053 14433 ft 318 kts 156°
2026-04-22 19:33 56.40721 -4.05417 13973 ft 316 kts 156°
2026-04-22 19:33 56.38718 -4.03791 13511 ft 315 kts 156°
2026-04-22 19:33 56.36718 -4.02170 13022 ft 315 kts 156°
2026-04-22 19:33 56.34723 -4.00554 12549 ft 314 kts 156°
2026-04-22 19:34 56.32735 -3.98947 12093 ft 312 kts 156°
2026-04-22 19:34 56.30758 -3.97349 11639 ft 311 kts 156°
2026-04-22 19:34 56.28785 -3.95757 11238 ft 309 kts 156°
2026-04-22 19:34 56.26869 -3.94212 11178 ft 294 kts 156°
2026-04-22 19:35 56.25055 -3.92751 10977 ft 278 kts 156°
2026-04-22 19:35 56.23358 -3.91387 10790 ft 264 kts 156°
2026-04-22 19:35 56.22239 -3.90487 10659 ft 259 kts 156°
2026-04-22 19:35 56.20088 -3.88759 10420 ft 252 kts 156°
2026-04-22 19:36 56.18467 -3.87458 10228 ft 252 kts 156°
2026-04-22 19:36 56.16871 -3.86181 10050 ft 258 kts 156°
2026-04-22 19:36 56.15223 -3.84861 9847 ft 258 kts 156°
2026-04-22 19:36 56.13595 -3.83560 9542 ft 253 kts 155°
2026-04-22 19:37 56.11932 -3.82634 9069 ft 252 kts 174°
2026-04-22 19:37 56.10170 -3.82737 8532 ft 255 kts 183°
2026-04-22 19:37 56.08413 -3.83045 8081 ft 253 kts 184°
2026-04-22 19:37 56.06678 -3.83392 7666 ft 250 kts 184°
2026-04-22 19:38 56.04991 -3.83740 7521 ft 236 kts 184°
2026-04-22 19:38 56.03395 -3.84087 7286 ft 228 kts 184°
2026-04-22 19:38 56.01826 -3.84440 6911 ft 227 kts 184°
2026-04-22 19:38 56.00254 -3.84790 6464 ft 229 kts 184°
2026-04-22 19:39 55.98678 -3.85028 6085 ft 224 kts 173°
2026-04-22 19:39 55.97208 -3.84318 5736 ft 217 kts 158°
2026-04-22 19:39 55.95780 -3.83412 5286 ft 220 kts 159°
2026-04-22 19:39 55.94336 -3.82503 4917 ft 218 kts 159°
2026-04-22 19:40 55.92952 -3.81637 4824 ft 204 kts 159°
2026-04-22 19:40 55.91639 -3.80828 4627 ft 197 kts 159°
2026-04-22 19:40 55.90347 -3.80040 4271 ft 197 kts 159°
2026-04-22 19:40 55.89054 -3.79253 3957 ft 196 kts 159°
2026-04-22 19:41 55.87767 -3.78476 3671 ft 194 kts 159°
2026-04-22 19:41 55.86491 -3.77720 3341 ft 193 kts 159°
2026-04-22 19:41 55.85218 -3.76965 3056 ft 191 kts 153°
2026-04-22 19:41 55.84210 -3.75495 3007 ft 190 kts 118°
2026-04-22 19:42 55.83931 -3.73247 3017 ft 189 kts 91°
2026-04-22 19:42 55.83968 -3.70915 3010 ft 188 kts 89°
2026-04-22 19:42 55.84303 -3.68685 2990 ft 191 kts 59°
2026-04-22 19:42 55.85095 -3.66843 2995 ft 182 kts 63°
2026-04-22 19:43 55.86272 -3.63099 3007 ft 169 kts 63°
2026-04-22 19:43 55.86894 -3.61284 3018 ft 175 kts 63°
2026-04-22 19:43 55.87525 -3.59419 2881 ft 177 kts 63°
2026-04-22 19:44 55.88152 -3.57558 2636 ft 171 kts 62°
2026-04-22 19:44 55.88741 -3.55810 2417 ft 158 kts 63°
2026-04-22 19:44 55.89276 -3.54220 2201 ft 141 kts 62°
2026-04-22 19:44 55.89744 -3.52829 2042 ft 123 kts 62°
2026-04-22 19:45 55.90175 -3.51541 1862 ft 118 kts 63°
2026-04-22 19:45 55.90605 -3.50271 1678 ft 121 kts 62°
2026-04-22 19:45 55.91030 -3.49011 1501 ft 118 kts 63°
2026-04-22 19:45 55.91457 -3.47745 1339 ft 116 kts 62°
2026-04-22 19:46 55.91875 -3.46510 1171 ft 120 kts 62°
2026-04-22 19:46 55.92285 -3.45314 972 ft 110 kts 60°
2026-04-22 19:46 55.92691 -3.44093 904 ft 119 kts 60°
2026-04-22 19:46 55.93120 -3.42834 724 ft 117 kts 59°
2026-04-22 19:47 55.93535 -3.41588 515 ft 119 kts 63°
2026-04-22 19:47 55.93964 -3.40322 350 ft 121 kts 59°
2026-04-22 19:47 55.94249 -3.39472 237 ft 120 kts 58°
2026-04-22 19:47 55.94786 -3.37894 116 ft 101 kts 58°
2026-04-22 19:48 55.95072 -3.37038 112 ft 59 kts 59°
2026-04-22 19:48 55.95203 -3.36653 113 ft 20 kts 59°
2026-04-22 19:48 55.95253 -3.36439 110 ft 16 kts 109°
2026-04-22 19:48 55.95204 -3.36360 114 ft 4 kts 151°
2026-04-22 19:49 55.95182 -3.36335 114 ft 4 kts 148°
2026-04-22 19:49 55.95167 -3.36318 112 ft 2 kts 148°
2026-04-22 19:49 55.95142 -3.36313 114 ft 5 kts 191°
2026-04-22 19:49 55.95106 -3.36367 115 ft 8 kts 236°
2026-04-22 19:50 55.95076 -3.36413 114 ft 4 kts 172°
2026-04-22 19:50 55.95041 -3.36387 113 ft 7 kts 175°
2026-04-22 19:50 55.95005 -3.36424 115 ft 1 kts 216°
2026-04-22 19:50 55.94993 -3.36413 114 ft 3 kts 153°
2026-04-22 19:51 55.94971 -3.36389 113 ft 5 kts 148°
2026-04-22 19:51 55.94946 -3.36361 113 ft 1 kts 148°
2026-04-22 19:51 55.94945 -3.36361 113 ft 0 kts 148°
2026-04-22 19:52 55.94944 -3.36360 113 ft 1 kts 150°
2026-04-22 19:53 55.94941 -3.36356 113 ft 0 kts 150°